Home > Weather > Bülach > Past weeks

Flag for Switzerland Past Weather in Bülach, Zurich, Switzerland — Yesterday and Last 2 Weeks

Now
55 °F

Cool.


Feels Like: 55 °F
Forecast: 48 / 78 °F
Wind: 1 mph from North

Location: Zurich-Kloten

Current Time: Jun 27, 2016 at 4:25:16 AM

Latest Report: Jun 27, 2016 at 3:00 AM


Visibility: N/A

Pressure: 30.17 "Hg

Humidity: 93%

Dew Point: 53 °F

Location of BülachLocation

Past Weather in Bülach — Graph

°F

Bülach Temperature Yesterday

Maximum temperature yesterday: 69 °F (at 1:00 PM)
Minimum temperature yesterday: 57 °F (at 6:00 AM)
Average temperature yesterday: 62 °F

High & Low Weather Summary for the Past Weeks

 TemperatureHumidityPressure
High90 °F (Jun 23, 5:00 PM)99% (Jun 20, 2:00 AM)30.27 "Hg (Jun 20, 2:00 AM)
Low50 °F (Jun 18, 3:00 AM)39% (Jun 24, 3:00 PM)29.60 "Hg (Jun 16, 5:00 AM)
Average62 °F80%29.96 "Hg
* Reported Jun 12 3:00 AM — Jun 27 3:00 AM, Bülach, Weather by CustomWeather, © 2016

Note: Actual official high and low records may vary slightly from our data, if they occured in-between our weather recording intervals... More about our weather records

Advertising

Bülach Weather History for the Previous 24 Hours

Scroll right to see more
 ConditionsComfort  
Time TempWeatherWind HumidityBarometerVisibility
3:00 AM
Mon, Jun 27
55 °FCool.1 mph93%30.17 "HgN/A
2:00 AM59 °FOvercast.2 mph88%30.15 "Hg11 mi
1:00 AM60 °FCool.2 mph88%30.15 "HgN/A
11:00 PM
Sun, Jun 26
61 °FOvercast.3 mph76%30.13 "Hg12 mi
10:00 PM62 °FCool.3 mph73%30.11 "HgN/A
9:00 PM63 °FMild.6 mph74%30.09 "HgN/A
8:00 PM65 °FOvercast.3 mph66%30.07 "Hg16 mi
7:00 PM65 °FMild.5 mph67%30.07 "HgN/A
6:00 PM65 °FMild.3 mph65%30.07 "HgN/A
5:00 PM67 °FOvercast.2 mph57%30.06 "Hg19 mi
4:00 PM67 °FMild.3 mph53%30.06 "HgN/A
3:00 PM67 °FMild.1 mph54%30.06 "HgN/A
2:00 PM68 °FPartly sunny.6 mph49%30.07 "Hg16 mi
1:00 PM69 °FMild.2 mph53%30.08 "HgN/A
12:00 PM67 °FMild.5 mph54%30.09 "HgN/A
11:00 AM64 °FPartly sunny.2 mph63%30.09 "Hg12 mi
10:00 AM62 °FCool.2 mph81%30.10 "HgN/A
9:00 AM59 °FCool.2 mph87%30.11 "HgN/A
8:00 AM58 °FFog.6 mph91%30.11 "Hg7 mi
7:00 AM57 °FCool.3 mph94%30.11 "HgN/A
6:00 AM57 °FCool.3 mph95%30.09 "HgN/A
5:00 AM58 °FOvercast.1 mph96%30.09 "Hg10 mi
4:00 AM58 °FCool.2 mph96%30.10 "HgN/A
Weather by CustomWeather, © 2016

See weather overviewHow to use our weather pages